Wind_Speed
38 37 39 42 42 41 41 41 41 42 43 43 43 43 44 44 45 47 47 46 45 43 43 43 42 43 46 49 49 48 49 50 49 50 52 53 54 54 55 55 56 57 56 56 56 56 56 55 55 55 55 56 56 57 57 57 58 58 58 58 57 57 57 57 57 58 58 59 59 59 59 60 61 61 61 61 61 61 61 61 61 61 61 61 60 60
40 39 42 44 44 43 44 44 44 44 45 46 47 47 47 48 48 49 49 50 49 47 47 47 45 47 50 53 53 52 52 53 52 52 54 55 55 56 56 57 58 58 58 58 57 57 57 56 56 55 55 55 56 57 58 58 59 60 60 61 61 61 61 61 60 60 61 61 62 62 62 63 63 64 64 64 64 64 64 64 64 64 64 64 63 63
40 40 43 44 43 44 45 46 45 46 47 48 49 50 51 52 52 52 53 53 53 52 51 51 49 50 55 57 56 56 57 57 56 58 59 59 59 59 59 59 59 59 59 59 59 59 58 58 57 57 56 56 56 57 58 58 59 60 61 62 63 64 64 65 65 64 64 64 65 65 65 66 66 66 67 67 67 67 67 67 67 67 67 67 66 66
38 40 43 42 42 44 45 46 47 47 48 49 51 52 53 54 54 54 56 56 56 56 55 55 53 53 58 60 59 60 60 60 60 61 63 63 63 64 64 65 64 64 64 64 63 62 61 61 60 60 60 60 60 61 61 61 62 62 63 64 64 65 66 67 68 68 69 69 69 69 69 69 69 69 69 69 70 70 70 70 70 70 70 70 69 69
38 42 45 44 44 45 46 48 49 49 49 50 52 54 55 56 56 56 58 58 58 59 59 59 56 56 62 64 63 64 64 64 64 65 65 66 67 67 68 69 69 68 69 69 69 68 67 67 66 66 65 65 64 64 64 64 65 66 67 67 68 68 68 69 69 70 71 73 73 74 74 74 74 73 73 73 73 73 73 74 74 74 74 73 73 72
43 48 49 48 49 49 50 52 53 52 52 53 55 56 56 57 58 59 59 59 60 60 61 62 60 58 61 65 68 69 67 68 70 70 70 70 70 70 70 71 71 71 71 72 72 72 72 72 71 71 70 69 67 66 66 66 65 66 67 68 69 70 71 72 73 73 73 74 75 76 76 77 78 78 78 78 78 78 78 78 78 78 78 78 77 77
48 52 51 49 50 50 52 54 55 55 55 57 59 58 58 59 60 60 60 60 59 60 61 62 62 60 57 61 68 69 68 69 71 71 72 73 73 72 72 73 74 73 73 73 73 73 74 74 73 73 73 72 71 70 70 69 68 67 68 69 70 71 72 74 75 76 77 78 78 79 79 80 80 81 82 82 82 82 82 82 82 82 82 82 81 81
50 51 51 51 52 52 53 54 54 55 56 58 60 60 60 60 61 61 61 60 58 58 57 58 62 59 53 56 64 66 66 67 68 68 68 69 70 70 70 71 72 72 71 72 72 73 73 73 73 73 74 74 74 74 74 73 73 73 73 74 74 74 74 75 76 78 79 80 81 82 83 83 84 85 85 85 85 84 84 84 84 85 85 86 86 85
51 52 54 54 55 54 54 53 54 55 56 57 59 60 60 60 60 60 60 58 57 55 52 55 60 55 46 48 56 61 63 64 65 66 66 66 66 66 66 67 69 70 69 69 71 72 73 74 75 75 76 76 77 78 78 79 79 79 79 80 80 80 80 80 81 82 82 83 84 86 86 86 87 88 88 88 88 88 87 87 87 87 88 89 89 89
53 54 56 56 56 55 55 56 56 56 56 56 58 58 59 59 59 60 59 59 59 54 52 58 62 56 46 45 52 58 61 63 65 67 67 67 67 67 67 68 70 72 72 72 73 75 76 78 79 80 80 80 81 82 83 84 85 85 85 86 87 87 87 87 88 89 89 88 89 90 91 91 91 91 92 92 91 91 91 91 91 91 91 92 92 92
56 57 58 57 57 57 59 60 60 59 59 59 60 60 61 61 61 61 61 61 62 56 56 62 64 61 54 50 55 61 63 65 67 69 69 70 71 73 73 72 73 75 77 76 76 78 80 82 83 84 84 85 86 87 88 90 91 92 92 93 93 93 94 94 95 96 96 96 95 95 95 96 96 97 97 97 97 96 95 95 94 95 95 96 96 96
59 58 58 57 58 60 62 62 62 63 63 64 64 65 66 65 64 64 64 66 65 60 61 66 66 64 60 58 61 64 66 69 70 71 73 73 75 76 77 77 77 79 81 81 81 81 83 84 86 88 89 90 90 91 92 93 96 98 99 99 99 99 99 100 101 102 103 103 102 101 100 100 100 101 102 104 104 103 101 100 99 98 98 99 99 99
59 58 58 59 60 62 63 64 66 67 67 68 69 70 71 70 70 70 69 71 69 65 67 70 69 67 64 64 67 68 69 71 73 74 76 77 78 79 81 82 82 83 85 86 86 86 87 88 90 91 93 94 95 95 96 97 99 102 103 104 104 105 106 106 106 106 107 108 108 107 106 105 105 105 106 107 108 109 109 108 107 105 103 102 102 102
59 59 60 61 62 64 66 68 70 70 71 71 73 74 75 76 78 77 76 76 74 73 75 75 74 71 69 69 71 71 72 74 76 78 79 80 82 83 85 87 87 88 89 91 92 92 93 93 95 96 97 99 101 102 103 103 104 106 107 108 109 109 110 111 111 111 111 112 113 113 113 112 112 111 111 110 111 112 113 114 114 113 111 109 108 107
62 63 64 65 66 67 69 71 73 73 74 75 77 79 80 83 86 85 83 84 83 82 82 81 81 78 76 75 76 76 77 79 82 84 84 86 88 89 91 93 95 96 97 98 99 100 100 101 103 104 105 106 107 109 110 110 110 110 111 112 112 113 113 114 115 115 115 116 117 118 118 118 118 117 117 116 115 115 116 117 118 118 118 117 116 114
64 64 66 68 69 71 72 74 76 76 78 79 81 83 85 88 91 92 92 92 93 92 88 86 87 85 83 82 82 83 85 86 89 91 92 94 96 98 99 101 103 104 105 107 108 109 109 109 110 110 111 111 112 113 114 114 114 114 114 114 114 114 115 116 116 117 117 118 119 120 121 122 122 122 122 122 122 121 120 120 121 121 122 122 122 121
66 67 69 71 73 74 76 78 79 80 81 83 85 87 90 92 95 98 100 100 101 100 95 92 92 92 91 89 88 91 93 94 97 98 100 101 103 105 106 107 109 110 112 114 115 115 115 115 114 114 114 115 115 116 116 116 116 115 115 114 114 114 114 115 116 117 117 118 119 120 121 123 124 125 126 126 127 127 126 125 125 125 125 125 125 125
71 71 72 73 75 77 79 81 82 84 85 87 89 91 94 97 99 102 105 105 107 107 104 101 99 98 97 96 95 98 99 100 102 103 104 106 107 109 111 112 114 116 117 119 119 119 119 118 118 118 118 117 117 116 116 116 115 114 114 113 113 112 112 113 113 114 115 116 117 117 118 120 121 124 126 128 129 130 130 130 130 129 129 129 129 129
75 76 75 76 79 81 83 84 85 87 89 91 93 95 97 99 101 105 108 109 111 113 111 108 105 102 101 101 101 102 103 104 104 106 107 109 111 113 116 117 118 119 120 121 121 122 122 122 121 121 120 119 118 117 116 115 114 113 112 112 111 111 111 111 111 111 111 112 113 114 115 116 117 119 122 124 127 129 131 132 133 133 133 132 132 132
80 80 80 80 83 85 87 88 88 91 93 95 97 98 100 102 104 107 111 113 115 117 116 113 109 105 102 101 103 105 106 107 107 109 112 114 116 118 120 120 121 121 121 122 123 124 124 123 123 122 121 120 119 117 116 115 113 112 111 111 110 110 109 109 109 109 109 110 110 111 112 113 114 115 117 120 123 126 128 130 132 133 134 135 135 135
84 85 85 84 86 89 90 92 93 95 98 100 101 102 104 105 108 111 114 116 118 119 119 117 114 108 103 103 107 109 110 111 113 116 118 119 121 121 122 122 122 123 123 124 125 125 125 124 124 123 122 120 119 117 116 115 114 112 112 111 110 110 109 108 108 108 108 108 109 109 110 111 112 113 115 116 118 121 124 126 129 131 132 134 136 136
89 90 90 89 89 92 94 97 98 100 102 104 105 106 107 109 111 114 117 119 120 122 122 121 119 113 108 108 111 114 116 118 120 122 122 123 123 124 125 125 125 125 126 126 126 126 125 125 124 123 121 120 119 117 116 115 114 113 112 111 110 109 108 107 107 107 107 107 108 108 109 110 111 112 113 115 116 118 120 122 124 126 128 130 133 134
94 95 95 95 94 96 99 101 102 104 106 107 108 110 111 112 114 117 121 122 125 127 126 125 124 119 113 114 116 119 121 123 125 126 126 126 127 127 127 128 128 128 128 128 127 127 126 125 124 123 121 120 119 117 116 115 114 113 112 111 110 109 108 107 107 107 107 107 107 108 109 110 111 112 113 114 115 116 117 119 120 122 124 126 128 130
97 99 100 100 100 101 102 104 106 107 109 111 112 113 113 115 118 121 125 128 130 131 128 127 127 122 118 119 121 123 125 127 127 128 129 130 130 130 130 130 130 130 129 128 128 127 126 125 124 123 121 120 118 117 116 115 114 113 111 110 109 108 108 107 107 107 107 107 107 108 109 110 111 112 113 114 115 115 117 118 119 120 121 122 124 126
98 101 103 103 104 104 105 107 110 112 113 114 115 115 116 118 121 125 129 133 135 134 130 129 128 125 124 125 126 127 129 130 130 131 132 132 132 132 132 132 131 130 129 129 128 127 126 125 124 122 121 119 118 116 115 114 113 112 111 110 109 108 107 107 106 106 106 106 107 108 108 109 110 111 112 113 114 115 116 117 118 119 120 121 122 123
101 103 106 107 108 108 108 110 114 116 117 117 117 118 119 122 125 129 134 138 139 136 133 132 130 129 129 129 130 131 132 132 133 134 134 133 133 133 133 132 131 130 129 129 128 127 125 124 123 122 120 119 117 116 115 114 112 111 110 109 108 107 106 106 105 105 105 105 105 106 107 108 109 110 111 112 113 114 115 116 117 118 119 120 121 122
105 107 109 110 112 113 114 116 118 119 120 121 121 122 124 126 129 133 139 142 141 139 138 136 134 134 134 132 133 135 135 135 136 135 134 133 133 133 132 132 131 130 129 129 128 126 124 123 122 121 120 119 118 117 115 113 111 110 108 107 106 105 104 103 103 102 102 102 103 103 104 105 106 107 108 109 111 112 113 114 116 117 118 119 120 121
109 111 112 114 116 118 120 122 123 124 124 125 125 126 128 130 133 139 144 145 143 142 141 139 138 139 138 135 135 137 138 138 137 136 135 134 133 132 132 131 130 130 129 128 127 125 124 122 121 121 120 119 118 116 114 112 110 108 106 104 103 102 101 101 100 100 100 100 100 100 100 101 102 103 104 106 107 108 110 111 113 114 116 117 119 120
113 115 116 118 121 123 126 128 128 128 129 129 129 129 130 133 138 144 146 144 143 145 144 141 141 141 139 137 138 139 140 139 137 136 135 134 133 132 131 130 129 128 127 126 125 124 123 122 121 120 119 118 116 114 111 109 107 105 103 102 101 100 99 99 99 98 98 98 97 97 97 98 99 100 101 102 103 105 106 107 109 110 112 114 115 117
118 120 121 123 126 128 131 132 133 133 133 133 133 133 134 138 143 146 145 144 145 147 145 143 143 142 140 139 140 140 139 137 136 135 134 133 132 131 130 130 129 127 126 125 124 124 123 122 121 120 118 115 113 110 108 106 104 103 101 101 100 99 98 97 97 97 96 96 96 95 95 95 96 97 98 99 100 102 103 104 105 106 108 109 111 112
123 125 127 129 131 134 135 136 137 137 137 138 137 137 139 143 146 146 145 145 146 145 144 145 145 143 140 140 140 139 137 136 135 135 133 132 131 130 130 129 128 127 126 125 125 123 122 121 119 117 114 111 109 107 105 103 102 100 99 98 98 97 96 95 95 95 95 95 94 94 95 95 95 96 97 98 99 100 100 101 103 104 105 106 107 108
128 130 133 135 137 138 138 139 140 141 142 142 140 140 143 147 148 146 145 144 144 144 145 146 145 142 140 139 139 138 137 136 135 133 132 131 130 130 129 128 127 126 126 125 123 122 120 117 114 112 109 107 106 104 103 101 100 98 97 96 95 95 94 94 93 93 93 93 93 94 94 94 95 95 96 97 97 98 99 100 101 102 103 104 105 106
134 136 138 141 142 141 141 142 143 145 147 145 143 144 147 149 148 145 144 143 143 145 145 144 142 140 139 138 137 136 136 134 133 131 130 129 129 128 127 126 125 125 124 122 120 118 115 112 109 107 106 105 104 102 101 100 99 98 97 96 95 94 93 93 93 93 93 93 93 93 93 93 94 94 94 95 96 96 97 98 99 99 100 101 102 103
139 140 142 143 145 145 146 147 149 150 150 147 146 148 149 148 146 145 144 144 144 144 143 141 139 138 137 136 136 135 133 132 130 129 128 127 127 127 125 124 123 122 120 117 114 112 109 107 105 104 103 102 101 101 100 99 99 98 97 96 95 94 93 92 92 92 92 92 92 92 92 92 92 92 93 93 94 94 95 96 96 96 97 97 97 98
141 143 145 147 149 150 151 152 154 154 151 148 148 148 147 145 146 147 146 145 142 141 140 139 137 136 135 135 134 132 130 128 127 126 126 126 127 125 123 121 119 116 113 111 108 107 105 104 103 102 101 101 100 100 99 98 98 98 97 96 95 94 93 92 91 91 91 91 91 91 91 91 91 91 91 92 92 93 93 94 94 94 94 95 95 96
145 147 150 151 153 154 154 156 157 155 152 148 146 146 147 148 148 148 146 142 139 138 137 136 135 135 134 132 130 128 127 126 124 124 124 125 124 121 118 116 113 110 108 106 105 104 103 102 102 101 101 100 100 99 99 98 98 97 97 96 94 93 92 91 91 91 91 91 91 91 91 91 90 91 91 91 91 92 92 92 92 92 93 93 94 94
149 151 153 154 156 157 157 157 157 154 151 147 146 148 150 149 147 146 144 139 135 133 133 134 134 133 131 128 126 125 124 123 122 122 122 121 117 113 111 109 107 105 104 104 103 103 102 102 101 101 100 100 99 99 99 98 97 97 96 95 94 93 92 92 91 91 91 91 90 90 90 90 90 90 91 91 91 91 91 91 92 92 92 92 92 93
153 154 156 157 158 157 157 156 156 154 150 147 148 150 150 148 146 144 141 135 129 128 131 131 130 128 126 125 123 122 120 119 117 117 117 113 109 107 106 104 103 103 103 103 103 103 102 101 101 100 99 99 99 98 98 97 96 96 95 94 93 93 92 92 91 91 91 90 90 90 89 89 89 90 90 90 90 90 90 91 91 91 91 91 91 92
155 156 157 158 157 157 157 157 156 154 151 149 149 149 148 145 142 139 135 130 126 127 129 127 125 124 123 121 120 118 116 114 111 109 108 106 104 104 103 103 103 103 103 103 103 103 102 101 100 99 99 98 98 97 97 96 96 95 95 94 93 92 91 91 91 91 91 90 90 89 89 88 89 89 89 89 89 89 90 90 90 90 90 90 90 91
157 158 158 158 158 158 158 158 157 155 151 148 148 146 143 139 135 133 131 128 126 126 126 124 122 121 119 117 115 112 110 107 104 103 103 102 102 102 102 102 102 103 103 103 103 102 100 99 98 98 97 97 97 96 96 95 95 94 94 93 92 92 91 91 91 90 90 90 89 88 88 88 88 88 88 88 88 88 89 89 89 89 90 90 90 89
159 159 159 159 159 158 159 159 158 152 146 144 144 141 136 133 130 129 129 128 126 124 122 120 118 116 114 112 109 106 103 102 101 101 101 101 101 101 102 102 103 103 103 103 101 100 99 97 96 96 96 96 96 95 95 95 94 94 93 93 92 91 91 90 90 89 89 88 87 86 86 86 86 86 86 86 86 86 87 87 87 87 88 88 88 87
159 159 160 160 159 159 160 158 153 146 140 139 140 136 132 131 130 129 128 127 124 121 118 115 113 111 109 107 104 102 101 100 100 100 100 101 100 101 101 102 102 102 102 101 99 98 97 96 95 95 95 95 95 95 95 94 93 93 92 91 91 90 90 89 88 88 87 86 86 85 85 84 84 84 84 84 84 84 84 85 85 85 85 85 84 84
160 160 160 160 159 158 156 151 146 140 135 134 135 134 131 130 129 128 126 123 119 116 113 111 108 106 105 103 102 101 100 99 100 100 100 100 100 100 100 101 101 100 100 99 98 97 96 96 95 94 94 94 94 94 93 93 92 91 90 89 89 88 88 87 87 87 86 85 85 84 84 84 84 84 83 83 83 83 83 84 84 83 83 83 82 81
162 161 160 158 155 152 148 142 137 134 132 131 132 132 131 129 126 123 120 118 114 112 109 107 105 104 103 102 101 100 99 99 99 100 100 99 99 99 99 99 99 99 98 98 97 97 96 95 94 93 92 92 92 92 92 91 90 88 87 87 86 86 86 86 86 86 85 85 84 84 83 83 83 83 82 82 81 82 82 82 82 82 82 81 80 80
160 157 154 150 145 142 138 134 131 131 130 129 129 128 127 125 122 118 115 113 111 109 107 105 104 103 102 101 101 100 99 99 99 98 98 98 98 98 98 98 98 98 97 96 95 94 94 93 92 91 91 91 91 90 90 89 87 86 85 84 84 84 84 85 85 85 84 84 83 82 82 82 82 81 80 80 80 80 80 80 80 79 79 78 78 78
152 148 144 139 136 133 131 129 130 129 127 125 125 124 122 120 117 115 113 110 108 107 106 104 103 102 101 100 99 99 98 98 97 97 96 96 96 96 97 98 98 97 95 94 92 91 90 90 89 89 89 89 88 88 88 87 85 83 83 83 84 84 84 84 84 83 83 82 81 80 80 80 79 78 78 78 78 78 78 77 76 76 76 75 75 75
142 138 135 131 129 129 128 127 127 125 122 121 121 120 118 116 115 113 110 108 107 106 105 103 102 102 100 99 98 98 97 96 95 94 93 93 93 94 96 97 97 96 94 92 90 89 88 87 87 87 87 86 86 85 85 84 82 82 82 83 83 83 83 83 82 82 81 80 79 78 78 77 77 76 76 76 76 76 76 75 74 73 73 73 72 72
133 131 129 127 126 125 123 122 121 121 119 118 117 117 116 115 113 110 108 107 107 106 105 103 102 101 100 99 98 97 95 93 92 92 91 91 92 93 94 94 94 93 92 91 89 88 86 86 85 85 85 84 83 83 82 82 81 81 81 81 81 80 80 80 80 80 80 79 78 77 77 76 75 75 75 76 76 76 75 74 73 72 71 71 70 69
129 127 125 123 120 118 117 118 120 120 118 116 115 115 115 113 110 107 106 107 106 105 104 102 101 100 99 99 97 96 93 92 92 92 91 90 90 91 91 91 91 91 90 89 88 86 85 85 84 84 83 82 81 81 81 80 80 79 79 79 78 78 78 78 78 78 78 78 77 76 76 76 75 75 75 75 75 75 74 74 73 71 70 70 69 68
124 120 118 116 114 112 114 118 120 120 118 117 115 113 111 109 107 105 105 106 105 104 103 102 101 100 99 98 97 96 94 93 92 91 90 89 90 90 89 89 89 89 88 87 86 86 85 84 83 82 82 81 80 79 79 79 78 77 77 77 76 76 76 76 76 77 77 77 76 76 76 76 75 75 74 74 74 74 74 74 73 71 69 69 69 68
116 113 112 112 111 111 113 116 119 120 119 117 113 110 108 106 105 103 103 104 103 103 102 102 101 99 99 98 98 96 95 93 92 91 90 89 89 88 88 88 88 87 87 86 86 85 85 84 83 82 81 80 79 78 78 77 76 75 75 75 74 74 74 74 74 75 75 75 75 75 75 75 74 74 74 73 72 72 72 73 73 72 69 68 67 68
Wind_Direction
274 276 277 276 277 279 278 277 276 276 275 275 275 275 275 275 275 276 277 277 275 275 275 275 276 277 277 277 276 277 277 278 280 281 282 282 282 281 281 280 280 280 280 281 281 281 281 281 280 280 279 278 278 277 277 276 275 274 273 273 273 273 273 273 274 274 274 274 273 272 273 273 274 274 275 275 275 275 274 274 273 273 272 272 271 270
273 275 275 275 276 277 277 276 276 275 275 274 274 274 274 273 273 275 276 276 275 274 274 274 275 275 275 275 274 274 274 275 276 277 277 278 279 279 279 278 278 278 279 279 279 279 280 279 280 280 280 280 279 279 278 277 277 276 274 274 273 272 271 271 271 271 272 272 272 271 271 272 272 273 274 274 274 274 273 273 273 273 273 272 272 271
275 275 274 274 275 275 275 276 275 275 275 275 275 274 273 273 272 273 274 274 274 274 274 274 274 275 275 275 275 275 274 275 275 276 276 276 276 276 276 276 276 276 276 276 276 277 277 277 277 277 278 278 278 278 278 278 278 277 276 275 275 274 272 271 270 269 269 269 269 269 269 269 269 270 271 272 272 272 272 272 272 272 272 272 272 271
276 274 272 273 274 275 275 275 275 275 276 276 276 276 275 275 274 273 273 273 274 274 274 274 274 275 275 275 275 275 275 275 275 274 274 275 275 274 274 274 274 274 275 275 275 275 275 275 275 275 275 275 276 276 276 276 276 276 275 275 275 274 274 273 272 270 269 268 267 267 267 267 267 267 267 268 269 270 270 270 270 270 270 270 270 270
276 274 272 273 274 275 276 276 275 276 277 278 278 278 278 278 277 276 275 275 275 275 275 274 274 274 276 276 276 275 275 276 275 274 274 274 273 273 273 273 273 273 273 273 273 273 273 273 273 273 273 274 274 275 275 275 276 276 276 275 275 274 273 273 272 271 270 269 268 267 267 266 266 266 265 265 266 267 267 267 268 268 268 268 268 268
275 274 275 277 277 278 278 278 278 278 279 279 278 279 279 279 279 279 279 279 279 279 279 278 276 275 276 279 278 277 277 277 277 276 275 274 274 273 272 272 271 271 271 271 271 271 271 271 271 271 272 272 272 273 274 274 274 275 275 275 275 274 273 273 272 271 270 269 269 268 267 267 266 265 265 264 264 265 265 265 266 266 266 266 266 265
276 278 280 282 282 283 282 281 282 282 282 281 280 280 280 280 280 280 281 281 282 282 282 282 280 277 277 279 279 279 279 278 278 278 277 276 275 275 274 272 271 271 270 270 270 270 270 270 271 271 271 271 271 271 272 272 272 272 272 273 273 273 272 272 272 271 271 270 269 268 268 267 266 265 265 264 264 264 263 263 263 264 264 264 264 263
280 282 284 284 285 285 284 284 285 286 285 285 285 285 284 283 282 282 282 282 283 282 282 282 280 278 278 278 277 279 278 277 277 277 276 276 276 275 275 274 273 272 271 271 271 271 271 271 272 273 272 272 272 272 272 271 272 273 273 273 272 272 271 271 270 270 270 270 269 269 268 267 267 266 265 264 263 263 263 263 262 262 262 262 262 262
281 282 283 284 285 285 285 287 288 288 287 287 288 288 287 286 285 284 284 283 283 282 282 281 278 277 278 277 276 276 275 274 274 273 273 273 274 274 274 274 274 274 273 273 273 273 273 273 273 274 275 275 275 275 275 274 273 274 274 273 272 271 270 270 269 269 269 269 269 269 268 267 267 266 265 264 263 262 262 262 262 262 261 261 260 260
280 281 281 283 284 285 287 288 288 288 288 289 289 289 288 287 287 286 285 285 283 283 284 282 281 280 277 275 276 275 273 273 271 270 269 270 272 272 272 273 274 274 274 274 273 273 274 274 274 274 274 274 275 275 275 275 275 275 274 273 272 271 270 270 270 270 269 269 269 268 268 267 266 265 265 264 263 262 262 261 261 261 261 261 260 260
281 281 281 282 282 285 287 288 289 291 291 292 292 292 292 291 291 290 290 289 287 287 287 285 286 286 283 280 279 277 277 276 274 274 272 271 271 272 271 272 272 273 273 274 274 273 273 275 275 275 275 275 275 275 275 275 275 275 275 274 273 271 270 270 270 270 270 269 269 268 267 266 266 265 264 264 263 262 262 261 260 260 260 260 260 260
281 281 281 280 282 284 287 290 292 294 295 296 296 296 296 296 296 295 296 295 292 292 292 290 290 290 290 290 285 282 281 280 279 279 278 276 275 274 274 274 274 273 273 274 274 273 273 274 275 276 276 276 275 275 275 276 276 276 276 275 273 272 270 270 270 270 270 269 269 268 267 266 265 264 264 264 263 262 262 261 260 260 259 259 260 260
280 280 280 281 283 286 289 292 293 295 296 297 298 298 298 299 299 299 299 299 298 298 297 294 293 292 294 294 291 289 287 285 284 283 282 282 280 280 280 280 280 279 279 278 278 277 277 276 276 276 276 276 276 276 276 276 277 278 278 277 276 274 272 270 269 269 269 269 269 268 267 266 265 264 263 263 263 262 262 261 260 260 259 258 258 258
279 280 281 284 287 290 292 294 294 295 297 298 298 299 300 301 301 300 301 301 301 302 300 298 297 296 297 296 294 294 292 290 290 289 288 287 287 287 287 287 287 286 285 285 284 284 284 283 282 281 281 280 281 281 280 279 278 278 278 278 277 276 275 273 271 269 268 268 269 268 267 266 265 264 263 262 261 261 260 261 261 260 259 258 258 257
279 282 285 287 290 292 294 294 295 297 298 299 300 301 303 304 304 303 304 304 305 304 303 302 301 300 301 299 298 298 296 295 295 295 294 294 294 294 294 294 293 293 292 291 290 290 289 289 288 288 287 286 285 285 284 283 281 280 278 278 277 277 276 275 273 271 270 269 269 268 267 266 265 265 264 263 261 260 259 259 259 259 259 259 258 257
282 285 287 290 292 293 294 295 296 297 299 301 303 304 305 306 306 307 308 307 307 305 304 304 303 302 303 302 302 302 301 300 300 299 299 300 299 299 298 298 297 296 296 295 294 293 293 292 291 290 289 288 287 287 286 285 284 283 282 281 280 278 277 276 275 274 273 271 270 269 268 267 266 265 264 263 263 261 260 259 258 258 258 258 258 258
285 287 289 291 292 293 295 296 297 299 302 303 304 305 305 306 308 308 308 308 307 306 306 306 305 304 304 304 305 305 304 303 303 302 302 301 301 300 299 298 297 296 296 295 295 295 294 293 292 291 290 289 288 287 286 286 285 285 284 283 282 281 280 278 277 276 274 273 272 270 269 268 267 266 265 264 263 262 261 260 259 258 257 257 257 257
287 288 289 291 293 294 296 298 300 303 303 303 304 304 305 307 307 307 308 308 308 307 307 307 306 306 306 307 307 306 305 304 303 302 301 300 299 298 297 296 296 295 295 295 295 295 294 293 292 291 290 289 288 288 287 286 286 285 284 283 283 282 281 279 278 277 275 274 273 271 270 269 267 266 265 265 264 263 262 261 260 259 258 257 256 256
289 290 291 292 294 296 298 301 302 303 302 302 303 303 304 305 305 306 307 308 308 308 308 307 306 306 307 307 306 304 303 301 300 299 297 297 296 295 295 295 294 294 294 295 295 294 294 293 292 292 291 290 289 289 288 287 286 285 284 283 282 281 280 279 278 277 276 275 274 272 271 270 268 267 266 265 264 263 262 262 261 260 259 258 257 256
291 292 294 295 297 299 301 302 301 300 301 301 301 302 302 303 303 304 305 307 308 308 307 306 306 306 306 305 304 301 300 298 297 295 294 294 294 294 294 294 294 294 294 294 294 294 294 293 293 292 292 291 291 290 289 288 287 286 285 283 282 281 280 279 278 277 276 275 274 273 271 270 269 268 266 265 264 263 263 262 261 261 260 259 258 257
294 295 297 297 299 301 301 301 300 300 300 300 300 300 301 301 302 303 305 307 307 306 305 304 304 304 304 303 301 299 297 296 294 293 293 293 294 294 294 295 295 295 294 294 294 294 294 294 293 293 293 292 291 291 290 289 288 286 285 284 283 282 280 279 278 277 276 275 274 273 272 271 270 269 268 267 266 265 264 263 262 261 261 260 260 259
297 297 298 299 301 301 301 300 300 300 299 299 299 299 299 299 300 302 303 304 304 303 303 303 302 303 303 302 300 298 296 295 294 294 294 295 295 295 295 295 295 295 295 295 295 295 294 294 294 293 293 292 291 290 290 289 288 287 286 285 283 282 281 279 278 277 276 275 274 273 272 272 271 270 269 268 267 266 265 264 264 263 262 262 261 260
298 297 298 300 301 300 300 300 299 297 297 297 297 297 297 298 299 300 301 302 302 302 302 301 301 302 303 301 298 297 296 295 295 295 296 296 296 296 296 296 296 296 296 296 296 295 295 294 294 293 293 292 291 290 289 289 288 287 286 285 284 282 281 279 278 277 276 275 274 273 272 272 271 270 270 269 268 267 267 266 265 264 264 263 263 262
297 297 298 299 299 298 297 297 296 295 294 294 294 295 295 295 297 298 299 300 301 301 301 300 300 302 302 299 297 296 296 296 296 297 297 297 297 296 296 296 296 296 296 296 295 295 294 294 294 293 293 292 291 291 290 289 288 287 286 285 283 282 281 280 278 277 276 275 274 274 273 272 271 270 270 269 269 268 267 267 266 266 265 265 264 264
292 293 294 294 295 294 294 293 292 291 291 292 292 293 293 294 295 297 299 300 300 301 301 299 300 301 299 297 297 297 297 297 297 297 296 296 296 296 296 296 296 296 296 296 295 295 294 294 294 293 292 292 291 291 290 289 287 286 285 284 283 282 281 280 279 278 277 276 275 274 273 272 271 271 270 269 269 268 267 267 266 266 266 265 265 264
288 289 291 291 291 291 291 290 289 289 290 291 291 291 292 294 295 297 299 299 300 300 299 299 299 299 297 297 298 298 297 297 296 296 296 296 296 297 296 296 296 296 296 295 295 295 294 294 294 293 293 292 291 290 289 288 287 286 285 284 283 282 281 280 279 278 277 276 275 274 273 272 272 271 270 270 269 268 268 267 267 266 266 265 265 264
285 287 289 289 290 290 290 289 289 289 289 290 290 291 292 294 295 297 298 299 299 299 298 298 298 297 297 298 299 298 297 296 295 295 296 296 297 296 296 296 296 296 296 295 295 295 294 294 294 293 292 292 291 290 289 288 287 287 286 285 284 283 281 280 279 278 277 276 275 274 273 273 272 271 271 270 270 269 269 268 267 267 266 266 265 264
284 285 287 287 288 289 289 289 289 289 289 289 290 291 293 294 295 297 298 299 298 298 297 298 298 298 298 299 298 296 296 295 296 296 297 296 296 296 296 296 296 295 295 295 295 295 294 294 293 293 292 291 291 290 289 289 288 287 286 285 284 283 282 281 280 279 278 277 276 275 274 274 273 272 271 270 270 269 268 268 268 267 267 266 266 265
282 283 285 285 286 287 288 288 288 289 288 289 290 291 293 294 296 297 297 298 297 297 297 298 298 298 298 298 296 295 295 296 297 297 296 296 295 296 296 295 295 295 294 294 294 294 294 293 293 292 292 291 290 290 289 288 287 287 286 285 284 283 283 282 281 280 280 279 278 277 276 275 274 273 272 271 271 270 269 268 268 267 267 267 266 266
281 282 284 284 285 286 287 287 288 288 288 289 290 292 294 295 296 296 296 296 297 297 298 298 297 297 297 296 295 295 295 296 296 295 295 295 295 295 295 295 295 295 295 295 294 294 294 293 292 292 291 290 289 289 288 288 287 287 286 285 285 284 284 283 283 282 282 281 280 279 278 277 276 275 274 273 272 271 270 270 269 268 268 267 267 266
281 282 283 284 285 285 286 287 287 288 289 290 291 294 296 296 295 295 295 296 297 297 297 296 296 296 296 296 295 295 296 295 295 295 295 296 295 295 295 295 295 295 295 295 294 294 293 292 291 291 290 289 289 288 287 287 286 286 286 285 285 285 285 284 284 283 283 282 281 280 279 277 276 275 274 273 272 272 271 271 270 269 269 268 268 267
282 283 284 284 285 285 286 287 287 288 289 290 293 296 296 294 294 295 296 296 296 296 295 295 295 296 295 295 295 295 295 294 294 295 295 295 295 295 295 295 295 295 294 294 293 293 292 291 291 290 290 289 289 288 288 288 287 287 287 287 286 286 286 285 284 283 282 281 280 279 278 277 276 275 274 273 272 272 271 270 270 269 269 268 268 268
283 284 284 285 285 286 287 287 288 289 290 292 295 295 294 293 295 296 295 295 294 294 294 295 295 294 294 294 294 293 293 294 294 294 294 294 294 294 294 295 294 294 293 293 292 292 291 291 290 290 290 290 289 289 289 289 289 289 289 288 288 287 286 286 285 284 283 282 281 279 278 277 276 276 275 274 273 273 272 271 270 269 269 268 268 268
283 284 284 285 286 287 287 288 288 289 291 294 294 293 293 294 295 294 294 294 294 294 294 293 293 293 293 293 292 292 293 293 293 294 294 294 294 294 294 294 294 293 292 292 291 291 290 290 290 290 290 290 290 290 290 290 290 290 290 289 288 287 286 286 285 284 283 282 281 280 280 279 278 277 277 276 275 275 274 273 272 272 271 270 270 269
284 284 285 286 286 287 288 288 289 290 292 294 293 294 294 294 293 293 293 294 293 293 293 293 293 293 292 292 292 292 293 293 293 294 294 294 294 294 294 293 293 292 291 291 291 290 290 290 290 290 290 290 290 290 290 291 291 291 290 290 289 288 287 286 286 285 284 283 283 282 281 281 280 279 278 277 276 276 275 274 274 273 273 272 272 271
284 284 285 286 286 287 288 288 290 291 293 293 294 294 293 293 293 293 293 293 293 293 293 293 293 292 291 291 292 292 292 293 293 294 294 294 293 293 293 292 292 291 291 290 290 290 290 290 290 291 291 291 291 292 292 292 291 291 290 289 289 288 288 287 287 286 285 284 284 283 282 282 281 280 279 279 278 277 276 276 275 274 274 273 273 272
284 285 285 286 287 287 288 289 291 291 292 293 294 293 293 293 293 293 292 292 292 293 293 292 291 290 290 291 291 292 292 293 293 294 293 292 292 292 292 291 291 290 290 290 290 290 291 291 291 292 292 292 292 292 292 291 290 290 290 289 289 289 288 288 287 286 285 284 284 283 283 282 282 281 280 279 279 278 277 277 276 275 274 274 273 273
284 285 286 286 287 288 289 290 291 291 292 293 293 293 293 293 292 292 291 292 292 292 290 289 288 289 290 291 291 292 292 293 293 293 292 291 292 292 291 290 290 291 291 291 291 291 291 291 292 292 292 292 292 291 291 290 290 290 290 290 289 289 289 288 287 286 285 285 284 283 283 282 281 281 280 279 279 278 278 277 276 275 275 274 274 273
285 286 286 287 288 289 290 290 291 292 293 293 292 292 292 292 291 291 291 291 291 290 288 288 289 289 290 291 291 292 292 292 292 291 291 291 291 291 291 291 291 291 291 291 291 291 291 292 292 292 292 292 291 290 290 290 290 290 290 290 289 289 288 287 287 286 285 285 284 283 282 282 281 280 280 279 279 278 278 277 277 277 276 275 274 274
286 286 287 287 288 289 290 291 291 292 292 292 292 292 291 291 290 290 290 290 289 288 288 289 290 290 291 291 291 292 292 292 292 291 291 291 291 291 291 292 291 291 291 290 291 291 292 292 292 292 291 291 291 291 291 290 290 290 290 289 289 288 287 286 286 285 284 284 283 283 282 281 281 280 279 279 279 278 278 278 277 277 276 276 275 275
286 286 287 288 289 290 290 291 291 291 292 293 292 291 290 290 290 290 290 289 288 288 289 290 291 291 291 291 291 291 292 292 292 291 291 291 291 292 291 291 291 290 290 291 291 292 292 292 291 291 291 291 291 291 291 290 290 290 289 289 288 287 287 286 285 285 284 284 283 282 282 281 281 280 279 279 278 278 278 277 277 277 276 276 276 276
286 286 287 288 289 289 289 290 291 292 292 292 291 290 290 290 290 289 289 288 288 290 291 291 291 291 291 291 292 292 292 292 292 291 291 291 291 291 290 290 290 290 291 291 291 291 291 291 291 291 292 292 291 291 290 290 289 289 288 288 288 288 287 287 286 285 285 284 284 283 283 282 281 281 280 280 279 279 279 278 278 277 277 277 277 277
286 286 287 288 288 288 289 289 290 291 291 290 290 290 290 289 288 288 288 289 290 290 290 290 290 290 291 291 292 291 291 291 291 291 290 290 290 290 290 290 290 290 291 291 291 291 291 291 292 292 292 291 290 290 289 289 288 288 288 288 288 288 287 287 286 286 285 285 285 284 284 283 283 282 281 281 281 280 280 279 279 278 278 278 278 278
285 286 286 287 287 287 288 289 289 290 290 289 289 289 288 287 287 288 288 289 289 289 289 290 290 291 291 291 291 291 291 291 290 290 290 290 290 290 290 290 290 290 290 290 290 291 291 292 292 291 291 290 289 289 288 288 288 289 289 288 288 287 287 287 286 286 286 286 285 285 285 284 283 283 283 282 282 281 280 279 279 279 279 279 278 278
285 285 285 286 286 287 288 288 289 289 289 288 287 287 287 287 287 288 288 288 288 289 290 290 291 291 291 291 291 291 290 290 290 290 290 290 290 289 289 289 288 288 288 289 290 290 291 291 291 291 290 289 289 289 289 289 289 289 289 288 288 288 287 287 287 287 286 286 286 285 285 285 284 284 284 283 282 281 281 280 280 280 279 279 278 277
284 284 285 285 286 287 288 288 288 288 288 287 286 286 286 286 287 287 287 288 289 290 290 290 291 291 290 290 290 289 289 289 289 288 288 288 288 289 289 288 288 288 289 290 290 290 290 290 290 290 289 289 289 289 289 289 290 290 289 289 289 288 288 288 288 287 287 286 286 286 286 285 285 285 285 284 283 282 281 281 281 280 280 279 278 277
283 284 285 286 286 287 287 287 287 287 286 285 285 285 285 285 286 287 288 290 290 290 290 291 290 290 290 289 289 289 288 288 287 288 288 288 288 288 288 288 289 290 290 291 291 290 290 290 290 289 289 289 289 289 289 289 290 290 290 289 289 289 289 288 288 288 287 287 287 287 287 286 286 286 285 285 284 283 283 282 282 281 280 280 279 278
283 284 285 286 286 286 287 287 286 285 284 283 284 284 285 285 286 288 290 290 290 290 290 290 290 290 290 289 289 288 288 288 288 288 288 288 288 288 288 289 290 290 291 291 291 291 290 290 290 289 289 289 289 289 289 289 290 290 290 289 289 289 289 289 288 288 288 288 288 288 288 287 287 286 286 285 285 284 284 284 283 282 281 280 280 279
283 284 285 285 286 286 286 285 284 283 283 283 284 284 285 286 288 290 290 290 290 290 290 290 290 290 290 289 289 289 289 289 289 289 289 289 289 289 289 290 290 291 291 291 291 291 291 290 289 289 289 289 289 290 290 290 290 290 290 289 289 289 289 289 289 289 289 289 289 288 288 287 287 286 285 285 285 285 285 285 284 283 282 281 280 279
283 284 284 284 285 285 284 283 283 283 283 283 284 285 286 288 289 289 289 290 290 291 291 290 290 290 290 290 290 290 291 290 290 290 290 290 290 290 291 291 291 291 291 291 291 291 291 290 290 290 290 290 290 290 290 290 290 290 289 289 289 289 289 289 289 289 288 288 288 288 287 287 286 286 285 285 285 285 285 285 284 283 282 282 282 281
282 283 283 284 284 283 283 282 283 282 282 283 284 286 287 287 288 288 289 289 290 290 290 290 290 290 291 291 291 291 291 290 290 291 291 291 291 292 292 292 291 291 291 291 291 291 291 291 291 291 291 291 291 291 291 290 290 290 289 289 289 289 288 288 288 288 288 287 287 287 286 286 286 285 285 285 285 285 285 285 285 284 283 281 281 281
Height
10751 10752 10750 10746 10746 10749 10749 10749 10750 10750 10749 10749 10749 10749 10748 10747 10746 10744 10745 10746 10747 10750 10749 10748 10750 10748 10743 10738 10737 10738 10736 10734 10735 10732 10729 10727 10726 10726 10724 10722 10721 10720 10719 10719 10719 10718 10718 10718 10718 10719 10719 10719 10718 10717 10717 10717 10716 10716 10715 10715 10714 10714 10714 10713 10712 10711 10710 10709 10709 10708 10708 10707 10706 10705 10704 10703 10702 10701 10700 10698 10697 10697 10696 10696 10696 10695
10747 10747 10744 10741 10743 10743 10742 10743 10744 10744 10744 10743 10743 10743 10743 10742 10741 10741 10740 10740 10741 10744 10744 10744 10745 10743 10737 10733 10734 10734 10732 10731 10732 10729 10726 10723 10722 10721 10719 10717 10715 10714 10713 10713 10713 10712 10712 10711 10711 10711 10711 10711 10711 10710 10709 10709 10708 10708 10708 10707 10706 10706 10706 10706 10705 10704 10703 10702 10701 10700 10700 10699 10698 10697 10696 10695 10695 10694 10692 10691 10690 10689 10688 10688 10688 10687
10743 10741 10737 10736 10738 10737 10737 10737 10737 10738 10738 10737 10737 10737 10736 10735 10736 10737 10735 10735 10736 10737 10738 10738 10740 10738 10731 10728 10729 10728 10726 10726 10726 10723 10720 10719 10717 10715 10713 10711 10710 10709 10708 10707 10706 10706 10705 10705 10705 10705 10705 10704 10704 10703 10702 10702 10701 10700 10699 10698 10697 10697 10697 10696 10696 10696 10695 10694 10693 10692 10691 10691 10690 10689 10688 10687 10686 10685 10684 10683 10682 10681 10680 10679 10679 10679
10738 10734 10731 10732 10733 10732 10732 10731 10731 10732 10732 10731 10731 10730 10730 10728 10730 10731 10729 10730 10731 10731 10732 10732 10735 10734 10724 10722 10724 10721 10719 10720 10719 10716 10714 10712 10711 10709 10706 10705 10704 10703 10702 10701 10700 10699 10699 10699 10698 10698 10697 10697 10696 10696 10695 10694 10693 10692 10691 10690 10689 10688 10687 10686 10686 10686 10685 10684 10684 10683 10682 10682 10681 10680 10680 10679 10677 10676 10675 10674 10673 10672 10671 10671 10670 10670
10732 10726 10725 10728 10727 10727 10726 10724 10724 10725 10726 10725 10724 10723 10723 10722 10723 10724 10723 10724 10725 10725 10726 10726 10730 10729 10719 10716 10716 10714 10714 10712 10710 10709 10707 10705 10703 10701 10699 10697 10697 10697 10695 10694 10693 10692 10692 10691 10691 10690 10689 10689 10688 10687 10687 10686 10686 10684 10683 10682 10681 10680 10678 10677 10676 10675 10674 10674 10673 10673 10672 10671 10671 10670 10670 10670 10669 10668 10666 10665 10664 10663 10662 10661 10661 10661
10725 10718 10719 10722 10722 10721 10720 10717 10717 10719 10720 10718 10716 10716 10716 10716 10716 10717 10717 10718 10719 10719 10719 10718 10722 10724 10719 10711 10706 10705 10708 10704 10700 10700 10699 10697 10695 10694 10692 10690 10689 10689 10687 10685 10684 10684 10683 10682 10682 10681 10681 10680 10680 10679 10678 10678 10677 10676 10674 10673 10672 10671 10669 10668 10666 10665 10664 10663 10662 10661 10661 10660 10659 10658 10658 10658 10658 10658 10657 10656 10655 10654 10653 10652 10651 10651
10718 10713 10714 10716 10715 10715 10714 10711 10710 10712 10712 10709 10708 10709 10709 10709 10708 10709 10710 10711 10713 10713 10712 10710 10710 10715 10719 10710 10698 10697 10701 10696 10691 10692 10690 10687 10686 10685 10684 10681 10680 10680 10679 10677 10676 10675 10674 10673 10673 10672 10671 10671 10670 10670 10669 10668 10668 10667 10666 10665 10663 10662 10660 10658 10657 10655 10654 10652 10651 10650 10649 10648 10647 10646 10646 10646 10645 10645 10645 10645 10644 10643 10642 10642 10641 10640
10711 10708 10708 10708 10708 10707 10706 10704 10704 10704 10704 10701 10699 10700 10701 10701 10701 10702 10701 10703 10705 10706 10707 10703 10696 10704 10714 10707 10695 10692 10691 10687 10684 10684 10681 10678 10677 10676 10675 10672 10670 10670 10670 10669 10667 10666 10665 10664 10663 10662 10661 10661 10660 10659 10658 10657 10657 10656 10655 10654 10653 10652 10650 10648 10647 10645 10643 10642 10640 10638 10638 10636 10635 10634 10633 10633 10632 10632 10632 10632 10632 10632 10631 10630 10630 10629
10705 10704 10702 10701 10700 10698 10698 10698 10698 10696 10696 10694 10692 10691 10692 10692 10693 10693 10694 10695 10696 10698 10702 10694 10685 10695 10707 10702 10692 10687 10683 10679 10677 10675 10672 10669 10668 10667 10666 10663 10661 10659 10660 10660 10658 10656 10655 10653 10653 10652 10651 10650 10649 10647 10646 10645 10644 10644 10643 10641 10640 10639 10638 10636 10634 10633 10632 10631 10629 10627 10626 10624 10623 10621 10620 10620 10619 10619 10619 10618 10618 10618 10618 10617 10617 10617
10699 10698 10695 10694 10692 10690 10690 10690 10690 10689 10689 10687 10685 10684 10684 10684 10685 10685 10686 10687 10687 10693 10695 10683 10676 10685 10697 10696 10687 10678 10674 10672 10669 10665 10664 10662 10658 10657 10656 10655 10652 10649 10649 10649 10649 10646 10644 10642 10641 10640 10639 10638 10637 10635 10633 10632 10630 10630 10629 10627 10626 10625 10623 10622 10620 10619 10618 10617 10616 10614 10613 10611 10610 10608 10606 10605 10605 10604 10604 10604 10604 10603 10603 10603 10603 10603
10692 10691 10689 10688 10685 10684 10682 10681 10681 10680 10680 10678 10677 10677 10675 10676 10677 10676 10679 10678 10677 10686 10685 10674 10670 10675 10684 10688 10679 10670 10666 10662 10658 10655 10653 10652 10647 10644 10644 10644 10643 10639 10636 10636 10637 10636 10633 10631 10629 10627 10627 10626 10625 10623 10621 10618 10616 10614 10613 10612 10611 10609 10608 10606 10603 10602 10601 10600 10600 10599 10598 10597 10596 10595 10593 10591 10590 10589 10589 10589 10589 10589 10588 10587 10587 10588
10684 10683 10682 10680 10678 10677 10674 10672 10672 10670 10669 10669 10668 10667 10665 10666 10668 10667 10669 10667 10668 10676 10674 10666 10665 10666 10671 10674 10667 10662 10658 10652 10648 10644 10641 10639 10636 10632 10631 10630 10630 10627 10624 10623 10623 10623 10621 10618 10616 10613 10612 10611 10610 10609 10607 10604 10601 10598 10596 10595 10594 10592 10591 10589 10588 10585 10583 10582 10582 10582 10582 10581 10580 10579 10578 10576 10575 10574 10574 10574 10573 10573 10573 10573 10572 10572
10677 10675 10674 10672 10670 10668 10666 10664 10662 10660 10661 10660 10658 10657 10654 10655 10656 10657 10658 10655 10658 10665 10661 10656 10656 10658 10662 10661 10653 10651 10648 10642 10638 10633 10629 10626 10623 10621 10618 10615 10615 10613 10611 10609 10608 10609 10608 10605 10603 10600 10597 10595 10594 10592 10591 10589 10586 10582 10579 10577 10576 10575 10573 10572 10571 10570 10567 10565 10564 10564 10564 10564 10563 10563 10562 10561 10559 10558 10558 10557 10557 10557 10557 10557 10556 10556
10668 10667 10665 10664 10661 10658 10656 10655 10652 10651 10651 10650 10649 10646 10644 10644 10641 10643 10646 10644 10647 10652 10648 10645 10644 10647 10652 10649 10643 10640 10636 10630 10625 10620 10617 10614 10611 10609 10605 10602 10600 10598 10596 10595 10593 10592 10592 10590 10588 10586 10583 10580 10578 10575 10574 10572 10570 10566 10563 10561 10559 10557 10555 10553 10552 10552 10551 10548 10546 10545 10545 10545 10544 10544 10543 10543 10543 10542 10540 10539 10539 10539 10540 10540 10540 10540
10659 10658 10656 10653 10651 10649 10646 10645 10642 10641 10640 10639 10638 10635 10634 10631 10626 10627 10632 10631 10633 10636 10637 10635 10632 10634 10638 10636 10632 10629 10623 10617 10611 10606 10604 10602 10599 10596 10593 10590 10586 10584 10582 10580 10578 10577 10576 10575 10573 10571 10568 10565 10562 10559 10556 10553 10551 10549 10546 10544 10542 10540 10538 10535 10533 10533 10533 10531 10529 10527 10526 10525 10525 10524 10524 10524 10523 10523 10523 10522 10521 10520 10521 10522 10522 10523
10651 10650 10646 10642 10641 10639 10636 10635 10633 10631 10629 10627 10626 10623 10622 10620 10614 10612 10616 10618 10617 10618 10625 10626 10619 10619 10623 10622 10619 10614 10609 10604 10597 10593 10591 10588 10586 10583 10580 10577 10573 10570 10567 10565 10564 10563 10562 10561 10559 10557 10553 10550 10546 10542 10538 10535 10532 10530 10528 10526 10524 10522 10520 10517 10515 10513 10512 10511 10510 10509 10507 10505 10505 10504 10504 10504 10503 10503 10503 10503 10503 10502 10502 10502 10503 10504
10642 10641 10638 10634 10631 10629 10627 10624 10622 10620 10617 10615 10614 10612 10609 10607 10605 10601 10600 10603 10601 10599 10608 10614 10609 10605 10605 10606 10606 10598 10593 10589 10583 10580 10578 10574 10572 10569 10567 10564 10560 10557 10553 10550 10549 10548 10546 10545 10542 10540 10536 10533 10529 10525 10522 10518 10515 10513 10511 10508 10505 10503 10500 10497 10495 10493 10491 10490 10489 10488 10487 10485 10485 10484 10483 10483 10482 10482 10482 10482 10483 10483 10483 10483 10483 10484
10631 10630 10630 10627 10622 10620 10617 10613 10610 10608 10604 10601 10601 10601 10598 10595 10594 10590 10586 10588 10587 10583 10588 10596 10597 10594 10590 10590 10590 10583 10578 10576 10571 10567 10565 10562 10559 10556 10553 10551 10547 10544 10540 10537 10535 10532 10529 10527 10524 10521 10518 10514 10511 10507 10504 10501 10498 10495 10492 10490 10487 10484 10480 10477 10475 10473 10471 10469 10466 10465 10465 10464 10463 10462 10461 10461 10460 10460 10460 10460 10461 10462 10463 10463 10464 10464
10619 10618 10619 10618 10613 10609 10606 10603 10600 10596 10592 10590 10589 10589 10588 10585 10582 10578 10574 10574 10573 10567 10568 10575 10580 10583 10581 10577 10574 10568 10564 10563 10560 10557 10553 10549 10547 10543 10539 10536 10533 10530 10527 10523 10520 10516 10512 10509 10506 10502 10499 10496 10493 10489 10486 10482 10479 10476 10473 10470 10467 10464 10461 10457 10454 10452 10450 10448 10445 10443 10442 10441 10440 10439 10439 10438 10437 10437 10437 10437 10438 10439 10440 10442 10443 10444
10604 10604 10607 10607 10602 10597 10594 10593 10589 10585 10581 10580 10579 10577 10577 10575 10570 10566 10563 10562 10559 10552 10550 10554 10561 10571 10574 10569 10562 10556 10551 10550 10548 10544 10540 10537 10534 10530 10526 10522 10519 10516 10512 10508 10504 10499 10495 10491 10487 10484 10480 10477 10474 10470 10467 10463 10460 10457 10453 10450 10447 10443 10441 10437 10434 10432 10429 10427 10425 10423 10421 10419 10418 10417 10416 10416 10415 10415 10415 10415 10415 10416 10417 10418 10420 10421
10590 10590 10593 10595 10592 10587 10583 10579 10577 10573 10569 10568 10567 10566 10565 10563 10558 10554 10551 10552 10547 10538 10536 10537 10543 10558 10568 10562 10552 10544 10539 10536 10531 10528 10526 10522 10519 10515 10510 10506 10503 10499 10495 10491 10487 10482 10478 10473 10469 10466 10462 10459 10455 10452 10448 10444 10440 10437 10433 10430 10426 10423 10421 10418 10415 10412 10410 10407 10405 10403 10401 10399 10398 10396 10395 10394 10394 10394 10394 10394 10394 10394 10395 10395 10396 10397
10575 10573 10576 10580 10581 10576 10570 10566 10564 10561 10557 10555 10554 10553 10552 10549 10547 10543 10540 10544 10540 10529 10527 10525 10525 10542 10557 10550 10538 10530 10524 10519 10513 10509 10508 10505 10501 10497 10492 10488 10484 10480 10477 10473 10469 10464 10459 10455 10451 10447 10444 10441 10437 10434 10430 10426 10421 10417 10414 10410 10407 10405 10402 10399 10396 10393 10391 10389 10387 10385 10382 10380 10379 10377 10376 10375 10373 10373 10373 10373 10373 10374 10374 10374 10374 10375
10560 10557 10558 10564 10566 10564 10558 10554 10552 10550 10547 10544 10542 10542 10540 10536 10536 10532 10527 10532 10529 10520 10520 10513 10508 10525 10539 10532 10521 10514 10506 10501 10495 10492 10489 10485 10482 10478 10473 10469 10464 10461 10457 10453 10449 10444 10439 10435 10432 10429 10425 10421 10417 10414 10411 10407 10403 10399 10395 10391 10388 10386 10383 10380 10377 10374 10372 10370 10368 10366 10364 10362 10360 10358 10357 10355 10354 10353 10353 10352 10353 10353 10353 10353 10353 10353
10547 10544 10544 10548 10551 10551 10548 10543 10540 10538 10537 10534 10533 10533 10531 10527 10525 10520 10515 10515 10511 10509 10511 10500 10494 10510 10517 10508 10503 10496 10488 10484 10479 10474 10470 10466 10462 10458 10454 10450 10446 10442 10439 10434 10429 10425 10420 10416 10413 10409 10406 10401 10397 10394 10391 10387 10383 10379 10375 10372 10369 10366 10363 10361 10358 10356 10354 10352 10350 10348 10345 10344 10342 10340 10338 10337 10335 10334 10333 10333 10333 10333 10333 10333 10333 10333
10538 10535 10535 10537 10539 10541 10541 10535 10528 10526 10525 10525 10525 10524 10521 10518 10514 10508 10504 10497 10491 10495 10498 10486 10484 10495 10493 10484 10483 10477 10469 10467 10462 10456 10452 10448 10445 10440 10435 10431 10428 10424 10420 10415 10410 10406 10402 10398 10394 10390 10387 10383 10380 10376 10372 10367 10363 10359 10355 10353 10350 10347 10344 10341 10340 10338 10335 10333 10331 10328 10326 10324 10323 10321 10320 10318 10317 10315 10314 10314 10313 10312 10312 10312 10313 10312
10529 10527 10527 10528 10527 10530 10532 10527 10519 10515 10514 10514 10514 10512 10510 10508 10504 10497 10490 10481 10476 10478 10478 10474 10476 10475 10469 10468 10467 10458 10451 10448 10443 10438 10434 10432 10429 10424 10417 10413 10409 10405 10401 10396 10392 10387 10383 10379 10375 10371 10367 10363 10360 10357 10352 10348 10344 10340 10336 10333 10331 10328 10325 10322 10321 10319 10316 10314 10312 10310 10308 10306 10304 10302 10301 10300 10298 10296 10295 10294 10293 10293 10292 10292 10292 10292
10517 10517 10517 10516 10514 10515 10516 10512 10508 10506 10503 10501 10501 10501 10499 10495 10492 10486 10475 10467 10464 10459 10455 10463 10463 10450 10449 10457 10450 10436 10431 10429 10424 10421 10419 10417 10413 10406 10401 10396 10391 10387 10382 10377 10373 10369 10365 10361 10357 10352 10347 10342 10339 10335 10331 10328 10324 10321 10317 10314 10312 10309 10306 10304 10302 10299 10297 10296 10294 10292 10291 10288 10287 10285 10283 10281 10279 10278 10276 10275 10274 10273 10272 10272 10272 10272
10505 10504 10507 10505 10501 10501 10499 10494 10493 10494 10492 10489 10488 10490 10491 10485 10479 10472 10460 10453 10449 10438 10436 10449 10445 10427 10431 10441 10430 10414 10409 10406 10405 10404 10401 10397 10393 10388 10384 10379 10375 10370 10364 10359 10355 10351 10347 10343 10338 10333 10328 10323 10318 10314 10311 10308 10305 10302 10298 10296 10293 10290 10288 10286 10284 10281 10279 10278 10277 10275 10274 10272 10270 10268 10265 10263 10262 10260 10258 10257 10256 10254 10253 10252 10251 10251
10493 10493 10495 10493 10488 10487 10483 10478 10479 10480 10477 10477 10478 10480 10482 10478 10468 10456 10445 10439 10432 10419 10421 10432 10425 10412 10416 10419 10406 10395 10390 10388 10388 10386 10381 10377 10373 10369 10366 10361 10357 10352 10347 10343 10338 10333 10329 10324 10320 10315 10310 10305 10300 10295 10292 10289 10286 10284 10281 10278 10275 10273 10271 10269 10266 10264 10262 10261 10259 10258 10257 10255 10253 10250 10247 10245 10243 10241 10240 10239 10238 10236 10235 10233 10232 10232
10483 10482 10482 10479 10475 10472 10468 10464 10464 10463 10460 10462 10467 10470 10472 10467 10454 10439 10431 10428 10418 10405 10406 10409 10400 10398 10405 10397 10382 10378 10377 10375 10371 10366 10363 10360 10356 10352 10347 10342 10337 10333 10329 10325 10319 10314 10310 10305 10300 10296 10291 10286 10282 10278 10275 10272 10270 10267 10264 10261 10259 10257 10255 10253 10251 10248 10246 10244 10242 10241 10239 10237 10235 10232 10229 10227 10225 10223 10222 10221 10220 10219 10218 10216 10215 10214
10472 10469 10467 10465 10459 10456 10457 10452 10447 10447 10446 10447 10455 10463 10460 10446 10431 10424 10422 10418 10407 10396 10392 10384 10375 10382 10388 10374 10361 10361 10361 10357 10352 10348 10345 10342 10338 10334 10328 10323 10319 10315 10310 10306 10301 10296 10291 10286 10281 10276 10272 10268 10264 10261 10259 10257 10255 10252 10250 10247 10245 10243 10241 10239 10237 10234 10231 10228 10226 10224 10222 10219 10217 10214 10212 10209 10208 10206 10205 10204 10202 10200 10199 10198 10197 10196
10457 10453 10451 10448 10440 10440 10444 10437 10432 10432 10429 10432 10449 10455 10439 10417 10410 10412 10411 10405 10395 10385 10377 10369 10363 10365 10365 10355 10347 10345 10341 10337 10335 10333 10330 10326 10321 10316 10312 10308 10303 10298 10292 10287 10283 10278 10272 10268 10263 10259 10255 10251 10247 10244 10242 10240 10239 10237 10235 10234 10231 10228 10226 10224 10221 10218 10215 10213 10210 10207 10204 10202 10200 10197 10195 10193 10191 10189 10188 10186 10184 10183 10182 10181 10180 10178
10442 10437 10433 10428 10422 10423 10425 10421 10417 10414 10412 10426 10444 10435 10410 10397 10398 10399 10394 10388 10381 10370 10362 10358 10354 10350 10345 10340 10335 10329 10324 10322 10321 10319 10315 10310 10305 10300 10297 10293 10287 10280 10275 10269 10265 10259 10255 10251 10247 10243 10239 10235 10231 10228 10225 10223 10221 10220 10219 10217 10215 10212 10210 10207 10204 10201 10198 10195 10192 10189 10187 10185 10183 10181 10178 10176 10174 10172 10170 10168 10167 10166 10165 10165 10164 10163
10427 10423 10416 10410 10406 10404 10405 10404 10398 10395 10403 10421 10425 10407 10390 10386 10384 10377 10373 10372 10366 10355 10347 10342 10339 10335 10329 10323 10317 10313 10311 10309 10305 10302 10298 10293 10288 10284 10280 10276 10269 10262 10257 10252 10247 10243 10238 10235 10231 10228 10225 10221 10218 10215 10212 10209 10206 10204 10202 10200 10198 10196 10193 10190 10188 10184 10181 10178 10174 10172 10170 10168 10166 10165 10163 10161 10158 10156 10154 10152 10151 10149 10148 10149 10148 10147
10411 10407 10400 10395 10390 10386 10387 10386 10378 10379 10396 10407 10399 10386 10377 10370 10363 10356 10354 10355 10351 10340 10331 10325 10322 10319 10310 10303 10301 10300 10297 10293 10289 10286 10281 10275 10270 10267 10262 10257 10251 10245 10240 10235 10231 10227 10223 10220 10217 10214 10211 10208 10205 10202 10199 10196 10193 10189 10186 10183 10180 10178 10176 10174 10172 10169 10166 10162 10158 10156 10154 10152 10150 10149 10147 10145 10142 10140 10138 10136 10135 10134 10133 10132 10131 10130
10396 10390 10384 10379 10374 10370 10370 10368 10363 10366 10380 10387 10380 10368 10357 10349 10346 10339 10334 10336 10336 10326 10316 10309 10303 10297 10290 10286 10287 10285 10281 10278 10275 10271 10264 10256 10252 10249 10245 10238 10233 10228 10224 10219 10216 10212 10208 10205 10203 10200 10197 10194 10190 10187 10184 10181 10177 10174 10170 10167 10165 10163 10161 10159 10157 10154 10151 10147 10144 10141 10138 10136 10135 10133 10131 10129 10126 10125 10123 10121 10120 10119 10118 10117 10115 10113
10380 10373 10368 10363 10357 10355 10353 10353 10351 10349 10356 10369 10365 10346 10332 10331 10330 10320 10312 10318 10324 10316 10302 10291 10282 10278 10276 10274 10273 10270 10267 10264 10262 10256 10246 10238 10237 10234 10228 10222 10217 10213 10209 10205 10201 10198 10194 10191 10189 10186 10184 10180 10177 10173 10169 10166 10162 10158 10155 10152 10150 10148 10146 10144 10142 10139 10136 10133 10130 10127 10124 10122 10121 10118 10115 10112 10110 10109 10108 10106 10104 10103 10102 10102 10101 10098
10364 10357 10353 10347 10341 10341 10338 10335 10335 10331 10337 10350 10344 10323 10315 10314 10308 10298 10292 10300 10311 10302 10283 10272 10267 10265 10265 10262 10259 10258 10254 10251 10249 10240 10226 10222 10223 10218 10211 10207 10203 10199 10195 10191 10187 10183 10180 10178 10176 10173 10170 10167 10163 10159 10155 10151 10148 10144 10141 10139 10137 10134 10132 10129 10125 10122 10120 10117 10115 10113 10111 10109 10106 10103 10100 10097 10095 10094 10092 10090 10088 10087 10086 10087 10086 10083
10346 10341 10337 10330 10327 10328 10321 10315 10316 10315 10321 10328 10319 10305 10302 10297 10288 10280 10274 10282 10291 10278 10258 10255 10257 10253 10251 10248 10245 10244 10239 10235 10234 10225 10213 10209 10208 10201 10195 10193 10189 10184 10180 10176 10172 10169 10167 10166 10163 10160 10156 10152 10148 10145 10141 10138 10135 10131 10128 10125 10123 10121 10118 10114 10110 10107 10104 10102 10100 10098 10096 10094 10091 10088 10085 10083 10081 10079 10077 10074 10073 10072 10071 10070 10069 10069
10328 10324 10319 10313 10312 10311 10304 10297 10295 10297 10303 10307 10295 10285 10283 10278 10271 10266 10259 10260 10263 10252 10243 10244 10243 10238 10237 10234 10230 10228 10223 10219 10217 10211 10202 10196 10193 10187 10182 10179 10174 10169 10165 10161 10158 10157 10155 10153 10150 10147 10143 10138 10134 10131 10128 10124 10121 10118 10114 10111 10108 10106 10103 10100 10096 10093 10090 10088 10085 10084 10082 10079 10076 10074 10071 10069 10067 10065 10062 10061 10059 10058 10056 10054 10053 10054
10313 10306 10299 10296 10297 10295 10286 10277 10273 10279 10290 10286 10269 10261 10262 10256 10250 10248 10243 10237 10233 10231 10233 10232 10227 10223 10221 10216 10214 10213 10210 10204 10200 10195 10188 10183 10180 10175 10169 10164 10160 10155 10151 10148 10146 10144 10142 10140 10137 10133 10129 10125 10121 10117 10113 10110 10107 10104 10100 10097 10094 10091 10088 10085 10082 10079 10076 10073 10072 10070 10067 10064 10062 10059 10057 10055 10054 10051 10048 10046 10046 10044 10041 10040 10040 10040
10297 10288 10283 10283 10282 10276 10268 10261 10257 10266 10276 10265 10243 10238 10241 10235 10228 10226 10222 10216 10214 10216 10218 10215 10212 10210 10205 10200 10200 10198 10194 10190 10185 10180 10175 10170 10167 10163 10156 10150 10147 10142 10138 10135 10133 10130 10128 10126 10124 10120 10116 10112 10108 10103 10099 10096 10093 10090 10087 10084 10080 10076 10073 10069 10066 10063 10061 10058 10057 10055 10052 10049 10046 10044 10042 10041 10040 10037 10034 10032 10031 10030 10028 10027 10028 10028
10278 10272 10270 10271 10266 10255 10251 10251 10249 10251 10256 10245 10227 10221 10220 10214 10209 10206 10202 10200 10202 10202 10199 10197 10197 10195 10190 10188 10186 10183 10180 10178 10172 10166 10162 10157 10153 10150 10144 10138 10134 10130 10126 10122 10119 10117 10115 10112 10110 10107 10103 10099 10094 10089 10086 10082 10080 10077 10074 10070 10066 10062 10058 10055 10051 10048 10045 10043 10042 10039 10037 10034 10031 10029 10028 10027 10025 10023 10020 10018 10017 10015 10014 10014 10015 10015
10261 10259 10256 10255 10250 10240 10236 10240 10239 10235 10232 10225 10213 10206 10199 10193 10192 10192 10189 10188 10187 10185 10184 10184 10184 10181 10177 10174 10171 10169 10168 10164 10158 10152 10148 10143 10139 10135 10130 10125 10121 10117 10114 10110 10107 10104 10102 10099 10097 10094 10090 10086 10080 10075 10072 10069 10066 10064 10061 10057 10053 10048 10044 10041 10037 10034 10031 10029 10028 10025 10022 10020 10017 10015 10014 10013 10011 10009 10006 10004 10003 10002 10001 10001 10002 10001
10244 10243 10241 10239 10235 10227 10224 10226 10223 10218 10213 10204 10194 10187 10180 10176 10177 10178 10176 10174 10172 10171 10171 10170 10169 10167 10164 10160 10158 10156 10153 10149 10144 10140 10135 10130 10125 10121 10116 10112 10107 10103 10102 10100 10097 10094 10090 10087 10084 10080 10076 10071 10066 10062 10058 10055 10053 10051 10047 10043 10039 10034 10031 10027 10024 10021 10018 10016 10014 10012 10009 10006 10003 10001 10001 9999 9997 9995 9992 9990 9990 9989 9988 9988 9988 9987
10228 10226 10225 10224 10220 10214 10211 10209 10203 10199 10196 10186 10173 10168 10165 10163 10162 10161 10159 10161 10161 10158 10157 10156 10154 10152 10149 10147 10145 10142 10139 10136 10132 10128 10124 10119 10114 10108 10102 10097 10092 10090 10089 10088 10085 10082 10079 10075 10071 10067 10062 10058 10053 10048 10045 10042 10040 10037 10033 10028 10025 10020 10017 10014 10011 10007 10004 10002 10001 9999 9996 9993 9990 9989 9987 9985 9982 9981 9979 9978 9978 9976 9975 9975 9975 9973
10213 10210 10209 10209 10207 10201 10196 10192 10185 10179 10175 10166 10155 10151 10151 10150 10149 10148 10148 10148 10146 10143 10142 10142 10139 10136 10134 10133 10131 10127 10124 10122 10118 10114 10111 10107 10102 10096 10089 10083 10079 10076 10074 10074 10072 10069 10066 10062 10058 10053 10049 10045 10041 10036 10032 10030 10028 10024 10020 10015 10011 10007 10004 10000 9997 9994 9991 9989 9988 9986 9983 9980 9978 9976 9974 9971 9968 9967 9965 9965 9965 9964 9962 9962 9961 9960
10199 10196 10196 10194 10190 10184 10179 10176 10169 10158 10152 10148 10143 10139 10136 10134 10137 10140 10138 10134 10131 10128 10127 10125 10122 10120 10118 10116 10113 10109 10108 10106 10103 10099 10096 10092 10088 10082 10076 10071 10068 10064 10060 10059 10057 10054 10052 10048 10044 10040 10036 10032 10029 10025 10021 10018 10016 10012 10007 10003 9999 9996 9992 9988 9985 9982 9979 9977 9975 9973 9970 9968 9966 9964 9961 9958 9955 9953 9952 9951 9951 9951 9949 9949 9949 9948
10183 10184 10184 10178 10175 10172 10163 10155 10145 10134 10131 10133 10131 10127 10125 10125 10128 10128 10123 10118 10115 10113 10111 10108 10106 10103 10100 10097 10094 10092 10091 10091 10086 10081 10080 10078 10074 10068 10063 10060 10057 10052 10048 10045 10042 10040 10037 10033 10029 10026 10022 10019 10016 10013 10009 10006 10003 10000 9995 9990 9987 9985 9981 9977 9974 9970 9967 9965 9963 9961 9958 9955 9953 9952 9949 9946 9943 9941 9939 9937 9937 9937 9936 9934 9935 9936
10168 10172 10171 10163 10162 10161 10148 10134 10123 10114 10112 10114 10116 10117 10118 10118 10118 10115 10109 10103 10099 10097 10094 10091 10088 10086 10083 10080 10077 10075 10074 10072 10069 10066 10065 10063 10058 10054 10051 10047 10043 10039 10035 10032 10029 10026 10022 10018 10014 10012 10009 10006 10004 10000 9996 9993 9991 9988 9983 9978 9976 9974 9970 9967 9964 9960 9957 9954 9952 9949 9947 9944 9942 9940 9938 9935 9933 9930 9927 9923 9922 9924 9925 9923 9920 9920
10155 10158 10157 10150 10146 10142 10132 10119 10107 10097 10094 10098 10105 10109 10110 10107 10105 10103 10098 10093 10088 10084 10079 10074 10071 10070 10068 10064 10061 10059 10057 10055 10053 10051 10050 10047 10043 10040 10037 10032 10028 10024 10021 10018 10015 10011 10008 10004 10001 9998 9995 9993 9991 9987 9983 9980 9979 9976 9971 9967 9965 9963 9960 9957 9954 9950 9946 9944 9941 9938 9935 9933 9931 9929 9926 9924 9922 9920 9917 9912 9908 9908 9910 9912 9911 9908